Location: Dana
(41.8364°N, 106.7042°W)
Time: 10:57:23
(UTC+00:00)

Tiros 1 despin weight - Pass Details

Date: 12 May 2026
Orbit: 554 x 591 km, 48.2° (Epoch: 10 June)

Event Time Altitude Azimuth Distance (km) Brightness Sun altitude
Rises 11:55:22 0° 199° (SSW) 2,745 ? 0.1°
Reaches altitude 10° 11:58:09 10° 180° (S) 1,845 ? 0.6°
Maximum altitude 12:01:05 19° 136° (SE) 1,375 ? 1.1°
Drops below altitude 10° 12:04:02 10° 91° (E) 1,840 ? 1.6°
Sets 12:06:48 0° 73° (ENE) 2,734 ? 2.1°
